Hourly Weather Biskupka

Today, 13 July, Monday

Time Temperature Precipitation Wind Pressure Humidity
00:00 +10°C° 0 mm 2 mps 747 mmHg 96%
01:00 +10°C° 0 mm 2 mps 747 mmHg 95%
02:00 +10°C° 0 mm 2 mps 747 mmHg 95%
03:00 +10°C° 0 mm 2 mps 746 mmHg 95%
04:00 +10°C° 0 mm 2 mps 746 mmHg 96%
05:00 +10°C° 0 mm 2 mps 746 mmHg 96%
06:00 +11°C° 0 mm 3 mps 746 mmHg 93%
07:00 +12°C° 0 mm 3 mps 746 mmHg 91%
08:00 +13°C° 0 mm 3 mps 746 mmHg 88%
09:00 +16°C° 0.1 mm 3 mps 746 mmHg 82%
10:00 +17°C° 0.1 mm 4 mps 746 mmHg 75%
11:00 +18°C° 0.1 mm 4 mps 746 mmHg 69%
12:00 +19°C° 0.2 mm 4 mps 746 mmHg 68%
13:00 +19°C° 0.2 mm 4 mps 746 mmHg 67%
14:00 +20°C° 0.2 mm 4 mps 745 mmHg 66%
15:00 +19°C° 0.4 mm 4 mps 745 mmHg 71%
16:00 +18°C° 0.4 mm 3 mps 745 mmHg 77%
17:00 +17°C° 0.4 mm 3 mps 744 mmHg 82%
18:00 +16°C° 0.1 mm 3 mps 744 mmHg 85%
19:00 +14°C° 0.1 mm 3 mps 744 mmHg 88%
20:00 +14°C° 0.1 mm 3 mps 744 mmHg 91%
21:00 +14°C° 0 mm 2 mps 744 mmHg 92%
22:00 +13°C° 0 mm 2 mps 744 mmHg 92%
23:00 +12°C° 0 mm 2 mps 744 mmHg 93%

Tomorrow, 14 July, Tuesday

Time Temperature Precipitation Wind Pressure Humidity
00:00 +12°C° 0 mm 2 mps 744 mmHg 94%
01:00 +10°C° 0 mm 3 mps 744 mmHg 94%
02:00 +10°C° 0 mm 3 mps 744 mmHg 94%
03:00 +10°C° 0 mm 3 mps 744 mmHg 93%
04:00 +10°C° 0 mm 3 mps 744 mmHg 93%
05:00 +10°C° 0 mm 3 mps 744 mmHg 92%
06:00 +12°C° 0 mm 4 mps 744 mmHg 86%
07:00 +13°C° 0 mm 4 mps 744 mmHg 80%
08:00 +15°C° 0 mm 4 mps 744 mmHg 75%
09:00 +18°C° 0 mm 4 mps 744 mmHg 69%
10:00 +19°C° 0 mm 5 mps 744 mmHg 64%
11:00 +20°C° 0 mm 5 mps 743 mmHg 58%
12:00 +20°C° 0 mm 5 mps 743 mmHg 58%
13:00 +21°C° 0 mm 5 mps 743 mmHg 57%
14:00 +21°C° 0 mm 5 mps 743 mmHg 56%
15:00 +21°C° 0 mm 5 mps 743 mmHg 58%
16:00 +21°C° 0 mm 5 mps 742 mmHg 61%
17:00 +20°C° 0 mm 5 mps 742 mmHg 63%
18:00 +19°C° 0 mm 4 mps 742 mmHg 68%
19:00 +18°C° 0 mm 4 mps 742 mmHg 73%
20:00 +16°C° 0 mm 3 mps 742 mmHg 77%
21:00 +14°C° 0 mm 3 mps 742 mmHg 78%
22:00 +14°C° 0 mm 3 mps 742 mmHg 79%
23:00 +13°C° 0 mm 3 mps 742 mmHg 80%

Day after tomorrow, 15 July, Wednesday

Time Temperature Precipitation Wind Pressure Humidity
00:00 +13°C° 0 mm 3 mps 742 mmHg 79%
01:00 +12°C° 0 mm 4 mps 742 mmHg 78%
02:00 +12°C° 0 mm 4 mps 742 mmHg 77%
03:00 +12°C° 0 mm 4 mps 742 mmHg 78%
04:00 +11°C° 0 mm 4 mps 742 mmHg 79%
05:00 +11°C° 0 mm 4 mps 742 mmHg 80%
06:00 +13°C° 0 mm 4 mps 742 mmHg 76%
07:00 +14°C° 0 mm 5 mps 742 mmHg 73%
08:00 +15°C° 0 mm 5 mps 742 mmHg 69%
09:00 +16°C° 0 mm 5 mps 742 mmHg 64%
10:00 +17°C° 0 mm 5 mps 742 mmHg 59%
11:00 +19°C° 0 mm 6 mps 742 mmHg 54%
12:00 +20°C° 0 mm 5 mps 742 mmHg 54%
13:00 +20°C° 0 mm 5 mps 742 mmHg 53%
14:00 +21°C° 0 mm 5 mps 743 mmHg 53%
15:00 +21°C° 0 mm 4 mps 743 mmHg 55%
16:00 +20°C° 0 mm 4 mps 743 mmHg 58%
17:00 +20°C° 0 mm 3 mps 743 mmHg 60%
18:00 +19°C° 0 mm 3 mps 743 mmHg 66%
19:00 +17°C° 0 mm 3 mps 743 mmHg 71%
20:00 +16°C° 0 mm 2 mps 743 mmHg 76%
21:00 +15°C° 0 mm 2 mps 743 mmHg 78%
22:00 +14°C° 0 mm 2 mps 743 mmHg 80%
23:00 +13°C° 0 mm 2 mps 743 mmHg 82%

16 July, Thursday

Time Temperature Precipitation Wind Pressure Humidity
00:00 +13°C° 0 mm 2 mps 743 mmHg 82%
01:00 +13°C° 0 mm 2 mps 743 mmHg 82%
02:00 +12°C° 0 mm 2 mps 743 mmHg 83%
03:00 +12°C° 0 mm 2 mps 743 mmHg 83%
04:00 +12°C° 0 mm 2 mps 743 mmHg 84%
05:00 +12°C° 0 mm 2 mps 743 mmHg 84%
06:00 +14°C° 0 mm 2 mps 743 mmHg 79%
07:00 +16°C° 0 mm 2 mps 743 mmHg 74%
08:00 +18°C° 0 mm 3 mps 743 mmHg 70%
09:00 +19°C° 0 mm 3 mps 744 mmHg 65%
10:00 +20°C° 0 mm 3 mps 744 mmHg 60%
11:00 +22°C° 0 mm 3 mps 744 mmHg 55%
12:00 +22°C° 0 mm 3 mps 744 mmHg 53%
13:00 +22°C° 0 mm 3 mps 743 mmHg 51%
14:00 +24°C° 0 mm 3 mps 743 mmHg 49%
15:00 +24°C° 0 mm 3 mps 743 mmHg 52%
16:00 +23°C° 0 mm 2 mps 743 mmHg 55%
17:00 +23°C° 0 mm 2 mps 743 mmHg 58%
18:00 +21°C° 0 mm 2 mps 743 mmHg 64%
19:00 +20°C° 0 mm 1 mps 743 mmHg 70%
20:00 +18°C° 0 mm 1 mps 743 mmHg 77%
21:00 +16°C° 0 mm 1 mps 743 mmHg 79%
22:00 +16°C° 0 mm 1 mps 743 mmHg 80%
23:00 +15°C° 0 mm 2 mps 744 mmHg 82%

17 July, Friday

Time Temperature Precipitation Wind Pressure Humidity
00:00 +14°C° 0 mm 2 mps 744 mmHg 84%
01:00 +14°C° 0 mm 2 mps 744 mmHg 85%
02:00 +13°C° 0 mm 2 mps 744 mmHg 87%
03:00 +13°C° 0 mm 2 mps 744 mmHg 87%
04:00 +13°C° 0 mm 2 mps 744 mmHg 87%
05:00 +13°C° 0 mm 2 mps 744 mmHg 87%
06:00 +15°C° 0 mm 2 mps 744 mmHg 81%
07:00 +16°C° 0 mm 2 mps 744 mmHg 76%
08:00 +18°C° 0 mm 2 mps 744 mmHg 71%
09:00 +19°C° 0 mm 2 mps 744 mmHg 67%
10:00 +21°C° 0 mm 2 mps 744 mmHg 62%
11:00 +23°C° 0 mm 2 mps 745 mmHg 58%
12:00 +23°C° 0 mm 2 mps 745 mmHg 57%
13:00 +24°C° 0 mm 3 mps 745 mmHg 56%
14:00 +24°C° 0 mm 3 mps 745 mmHg 54%
15:00 +24°C° 0 mm 3 mps 745 mmHg 56%
16:00 +24°C° 0 mm 3 mps 744 mmHg 58%
17:00 +22°C° 0 mm 3 mps 744 mmHg 60%
18:00 +21°C° 0 mm 2 mps 744 mmHg 66%
19:00 +19°C° 0 mm 2 mps 744 mmHg 73%
20:00 +18°C° 0 mm 1 mps 744 mmHg 79%
21:00 +16°C° 0 mm 1 mps 744 mmHg 81%
22:00 +16°C° 0 mm 1 mps 745 mmHg 83%
23:00 +15°C° 0 mm 1 mps 745 mmHg 85%

18 July, Saturday

Time Temperature Precipitation Wind Pressure Humidity
00:00 +14°C° 0 mm 1 mps 745 mmHg 86%
01:00 +14°C° 0 mm 1 mps 745 mmHg 87%
02:00 +13°C° 0 mm 1 mps 745 mmHg 88%
03:00 +13°C° 0 mm 1 mps 745 mmHg 88%
04:00 +13°C° 0 mm 1 mps 745 mmHg 87%
05:00 +13°C° 0 mm 1 mps 745 mmHg 86%
06:00 +15°C° 0 mm 1 mps 745 mmHg 80%
07:00 +17°C° 0 mm 2 mps 746 mmHg 74%
08:00 +19°C° 0 mm 2 mps 746 mmHg 69%
09:00 +20°C° 0 mm 2 mps 746 mmHg 65%
10:00 +21°C° 0 mm 2 mps 746 mmHg 61%
11:00 +23°C° 0 mm 2 mps 746 mmHg 57%
12:00 +23°C° 0.1 mm 2 mps 746 mmHg 57%
13:00 +24°C° 0.1 mm 2 mps 745 mmHg 56%
14:00 +24°C° 0.1 mm 2 mps 745 mmHg 55%
15:00 +22°C° 0.4 mm 3 mps 745 mmHg 62%
16:00 +21°C° 0.4 mm 3 mps 745 mmHg 68%
17:00 +20°C° 0.4 mm 3 mps 745 mmHg 75%
18:00 +19°C° 0.2 mm 2 mps 745 mmHg 79%
19:00 +18°C° 0.2 mm 2 mps 745 mmHg 82%
20:00 +18°C° 0.2 mm 1 mps 745 mmHg 86%
21:00 +16°C° 0 mm 2 mps 745 mmHg 87%
22:00 +15°C° 0 mm 2 mps 745 mmHg 88%
23:00 +14°C° 0 mm 2 mps 746 mmHg 89%
Show more